contact:dominique.lefevre@mio.osupytheas.fr, maurice.libes@osupytheas.fr, didier.mallarino@osupytheas.fr
Project:EMSO http://www.emso-fr.org/EMSO-France
Depth: 2436.0 m
Title:EMSO Ligure Ouest : Data MII capteur MICROCAT
DateTime_Computer,Latitude,Longitude,Temperature,Conductivity,Pressure,DateTime_Instrument
DateTime_Computer,Latitude,Longitude,degC,S m-1,dbar,DateTime_Instrument
2022-01-11T00:01:40Z,42.805,6.029,13.2993,4.60017,2469.914,2022-1-11T02:03:10Z
2022-01-11T00:04:43Z,42.805,6.029,13.2995,4.60019,2469.937,2022-1-11T02:06:13Z
2022-01-11T00:07:46Z,42.805,6.029,13.2991,4.60019,2469.9,2022-1-11T02:09:17Z
2022-01-11T00:10:49Z,42.805,6.029,13.2994,4.60020,2469.914,2022-1-11T02:12:20Z
2022-01-11T00:13:52Z,42.805,6.029,13.2995,4.60020,2469.876,2022-1-11T02:15:23Z
2022-01-11T00:16:55Z,42.805,6.029,13.2996,4.60021,2469.9,2022-1-11T02:18:26Z
2022-01-11T00:19:58Z,42.805,6.029,13.2996,4.60019,2469.89,2022-1-11T02:21:29Z
2022-01-11T00:23:02Z,42.805,6.029,13.2993,4.60023,2469.914,2022-1-11T02:24:32Z
2022-01-11T00:26:05Z,42.805,6.029,13.2992,4.60019,2469.876,2022-1-11T02:27:35Z
2022-01-11T00:29:08Z,42.805,6.029,13.2991,4.60018,2469.876,2022-1-11T02:30:38Z
2022-01-11T00:32:11Z,42.805,6.029,13.2993,4.60016,2469.853,2022-1-11T02:33:42Z
2022-01-11T00:35:14Z,42.805,6.029,13.2996,4.60016,2469.89,2022-1-11T02:36:45Z
2022-01-11T00:38:17Z,42.805,6.029,13.2997,4.60016,2469.9,2022-1-11T02:39:48Z
2022-01-11T00:41:20Z,42.805,6.029,13.2992,4.60017,2469.914,2022-1-11T02:42:51Z
2022-01-11T00:44:23Z,42.805,6.029,13.2992,4.60022,2469.876,2022-1-11T02:45:54Z
2022-01-11T00:47:27Z,42.805,6.029,13.2993,4.60022,2469.9,2022-1-11T02:48:57Z
2022-01-11T00:50:30Z,42.805,6.029,13.2994,4.60025,2469.9,2022-1-11T02:52:00Z
2022-01-11T00:53:33Z,42.805,6.029,13.2993,4.60018,2469.886,2022-1-11T02:55:03Z
2022-01-11T00:56:36Z,42.805,6.029,13.2991,4.60020,2469.853,2022-1-11T02:58:07Z
2022-01-11T00:59:39Z,42.805,6.029,13.2993,4.60019,2469.853,2022-1-11T03:01:10Z
2022-01-11T01:02:42Z,42.805,6.029,13.2992,4.60019,2469.876,2022-1-11T03:04:13Z
2022-01-11T01:05:45Z,42.805,6.029,13.2995,4.60019,2469.853,2022-1-11T03:07:16Z
2022-01-11T01:08:48Z,42.805,6.029,13.2990,4.60020,2469.876,2022-1-11T03:10:19Z
2022-01-11T01:11:52Z,42.805,6.029,13.2994,4.60019,2469.876,2022-1-11T03:13:22Z
2022-01-11T01:14:55Z,42.805,6.029,13.2994,4.60023,2469.89,2022-1-11T03:16:25Z
2022-01-11T01:17:58Z,42.805,6.029,13.2997,4.60020,2469.9,2022-1-11T03:19:28Z
2022-01-11T01:21:01Z,42.805,6.029,13.2995,4.60024,2469.876,2022-1-11T03:22:32Z
2022-01-11T01:24:04Z,42.805,6.029,13.2992,4.60020,2469.876,2022-1-11T03:25:35Z
2022-01-11T01:27:07Z,42.805,6.029,13.2992,4.60021,2469.876,2022-1-11T03:28:38Z
2022-01-11T01:30:10Z,42.805,6.029,13.2996,4.60022,2469.914,2022-1-11T03:31:41Z
2022-01-11T01:33:13Z,42.805,6.029,13.2996,4.60022,2469.876,2022-1-11T03:34:44Z
2022-01-11T01:36:17Z,42.805,6.029,13.2997,4.60021,2469.876,2022-1-11T03:37:47Z
2022-01-11T01:39:20Z,42.805,6.029,13.2991,4.60017,2469.853,2022-1-11T03:40:50Z
2022-01-11T01:42:23Z,42.805,6.029,13.2996,4.60020,2469.876,2022-1-11T03:43:53Z
2022-01-11T01:45:26Z,42.805,6.029,13.2993,4.60021,2469.876,2022-1-11T03:46:57Z
2022-01-11T01:48:29Z,42.805,6.029,13.2996,4.60019,2469.914,2022-1-11T03:50:00Z
2022-01-11T01:51:32Z,42.805,6.029,13.2994,4.60021,2469.876,2022-1-11T03:53:03Z
2022-01-11T01:54:35Z,42.805,6.029,13.2993,4.60016,2469.923,2022-1-11T03:56:06Z
2022-01-11T01:57:38Z,42.805,6.029,13.2995,4.60019,2469.876,2022-1-11T03:59:09Z
2022-01-11T02:00:42Z,42.805,6.029,13.2991,4.60019,2469.923,2022-1-11T04:02:12Z
2022-01-11T02:03:45Z,42.805,6.029,13.2994,4.60027,2469.914,2022-1-11T04:05:15Z
2022-01-11T02:06:48Z,42.805,6.029,13.2998,4.60021,2469.9,2022-1-11T04:08:18Z
2022-01-11T02:09:51Z,42.805,6.029,13.2993,4.60020,2469.867,2022-1-11T04:11:22Z
2022-01-11T02:12:54Z,42.805,6.029,13.2996,4.60028,2469.914,2022-1-11T04:14:25Z
2022-01-11T02:15:57Z,42.805,6.029,13.2995,4.60020,2469.876,2022-1-11T04:17:28Z
2022-01-11T02:19:00Z,42.805,6.029,13.2995,4.60024,2469.914,2022-1-11T04:20:31Z
2022-01-11T02:22:03Z,42.805,6.029,13.2995,4.60021,2469.9,2022-1-11T04:23:34Z
2022-01-11T02:25:07Z,42.805,6.029,13.2991,4.60021,2469.909,2022-1-11T04:26:37Z
2022-01-11T02:28:10Z,42.805,6.029,13.2995,4.60021,2469.876,2022-1-11T04:29:40Z
2022-01-11T02:31:13Z,42.805,6.029,13.2996,4.60019,2469.914,2022-1-11T04:32:43Z
2022-01-11T02:34:16Z,42.805,6.029,13.2995,4.60021,2469.914,2022-1-11T04:35:47Z
2022-01-11T02:37:19Z,42.805,6.029,13.2996,4.60028,2469.937,2022-1-11T04:38:50Z
2022-01-11T02:40:22Z,42.805,6.029,13.2993,4.60022,2469.9,2022-1-11T04:41:53Z
2022-01-11T02:43:25Z,42.805,6.029,13.2994,4.60029,2469.947,2022-1-11T04:44:56Z
2022-01-11T02:46:28Z,42.805,6.029,13.2994,4.60022,2469.914,2022-1-11T04:47:59Z
2022-01-11T02:49:31Z,42.805,6.029,13.2993,4.60020,2469.923,2022-1-11T04:51:02Z
2022-01-11T02:52:35Z,42.805,6.029,13.2993,4.60022,2469.923,2022-1-11T04:54:05Z
2022-01-11T02:55:38Z,42.805,6.029,13.2991,4.60020,2469.923,2022-1-11T04:57:08Z
2022-01-11T02:58:41Z,42.805,6.029,13.2993,4.60020,2469.9,2022-1-11T05:00:12Z
2022-01-11T03:01:44Z,42.805,6.029,13.2998,4.60021,2469.947,2022-1-11T05:03:15Z
2022-01-11T03:04:47Z,42.805,6.029,13.2991,4.60025,2469.96,2022-1-11T05:06:18Z
2022-01-11T03:07:50Z,42.805,6.029,13.2991,4.60017,2469.947,2022-1-11T05:09:21Z
2022-01-11T03:10:53Z,42.805,6.029,13.2995,4.60017,2469.947,2022-1-11T05:12:24Z
2022-01-11T03:13:56Z,42.805,6.029,13.2986,4.60024,2469.96,2022-1-11T05:15:27Z
2022-01-11T03:17:00Z,42.805,6.029,13.2993,4.60020,2469.96,2022-1-11T05:18:30Z
2022-01-11T03:20:03Z,42.805,6.029,13.2991,4.60019,2469.937,2022-1-11T05:21:33Z
2022-01-11T03:23:06Z,42.805,6.029,13.2992,4.60019,2469.923,2022-1-11T05:24:36Z
2022-01-11T03:26:09Z,42.805,6.029,13.2991,4.60024,2469.97,2022-1-11T05:27:40Z
2022-01-11T03:29:12Z,42.805,6.029,13.2993,4.60021,2469.947,2022-1-11T05:30:43Z
2022-01-11T03:32:15Z,42.805,6.029,13.2991,4.60023,2469.947,2022-1-11T05:33:46Z
2022-01-11T03:35:18Z,42.805,6.029,13.2995,4.60024,2469.923,2022-1-11T05:36:49Z
2022-01-11T03:38:21Z,42.805,6.029,13.2996,4.60024,2469.96,2022-1-11T05:39:52Z
2022-01-11T03:41:25Z,42.805,6.029,13.2993,4.60034,2469.947,2022-1-11T05:42:55Z
2022-01-11T03:44:28Z,42.805,6.029,13.2989,4.60029,2469.96,2022-1-11T05:45:58Z
2022-01-11T03:47:31Z,42.805,6.029,13.2992,4.60037,2469.984,2022-1-11T05:49:02Z
2022-01-11T03:50:34Z,42.805,6.029,13.2990,4.60033,2469.97,2022-1-11T05:52:05Z
2022-01-11T03:53:37Z,42.805,6.029,13.2990,4.60026,2469.947,2022-1-11T05:55:08Z
2022-01-11T03:56:40Z,42.805,6.029,13.2991,4.60026,2469.947,2022-1-11T05:58:11Z
2022-01-11T03:59:43Z,42.805,6.029,13.2994,4.60027,2469.947,2022-1-11T06:01:14Z
2022-01-11T04:02:46Z,42.805,6.029,13.2994,4.60021,2469.984,2022-1-11T06:04:17Z
2022-01-11T04:05:50Z,42.805,6.029,13.2996,4.60021,2469.923,2022-1-11T06:07:20Z
2022-01-11T04:08:53Z,42.805,6.029,13.2991,4.60024,2469.923,2022-1-11T06:10:23Z
2022-01-11T04:11:56Z,42.805,6.029,13.2989,4.60019,2469.993,2022-1-11T06:13:26Z
2022-01-11T04:14:59Z,42.805,6.029,13.2994,4.60019,2469.97,2022-1-11T06:16:30Z
2022-01-11T04:18:02Z,42.805,6.029,13.2993,4.60021,2469.984,2022-1-11T06:19:33Z
2022-01-11T04:21:05Z,42.805,6.029,13.2990,4.60026,2469.909,2022-1-11T06:22:36Z
2022-01-11T04:24:08Z,42.805,6.029,13.2991,4.60021,2469.947,2022-1-11T06:25:39Z
2022-01-11T04:27:11Z,42.805,6.029,13.2991,4.60019,2469.984,2022-1-11T06:28:42Z
2022-01-11T04:30:15Z,42.805,6.029,13.2993,4.60024,2469.97,2022-1-11T06:31:45Z
2022-01-11T04:33:18Z,42.805,6.029,13.2992,4.60028,2469.947,2022-1-11T06:34:48Z
2022-01-11T04:36:21Z,42.805,6.029,13.2995,4.60020,2469.947,2022-1-11T06:37:51Z
2022-01-11T04:39:24Z,42.805,6.029,13.2991,4.60019,2469.947,2022-1-11T06:40:55Z
2022-01-11T04:42:27Z,42.805,6.029,13.2993,4.60026,2469.947,2022-1-11T06:43:58Z
2022-01-11T04:45:30Z,42.805,6.029,13.2994,4.60026,2469.947,2022-1-11T06:47:01Z
2022-01-11T04:48:33Z,42.805,6.029,13.2996,4.60023,2469.96,2022-1-11T06:50:04Z
2022-01-11T04:51:36Z,42.805,6.029,13.2996,4.60021,2470.007,2022-1-11T06:53:07Z
2022-01-11T04:54:40Z,42.805,6.029,13.2990,4.60022,2469.993,2022-1-11T06:56:10Z
2022-01-11T04:57:43Z,42.805,6.029,13.2991,4.60024,2469.984,2022-1-11T06:59:13Z
2022-01-11T05:00:46Z,42.805,6.029,13.2996,4.60020,2469.947,2022-1-11T07:02:16Z
2022-01-11T05:03:49Z,42.805,6.029,13.2992,4.60025,2469.984,2022-1-11T07:05:20Z
2022-01-11T05:06:52Z,42.805,6.029,13.2992,4.60023,2469.96,2022-1-11T07:08:23Z
2022-01-11T05:09:55Z,42.805,6.029,13.2990,4.60026,2469.993,2022-1-11T07:11:26Z
2022-01-11T05:12:58Z,42.805,6.029,13.2992,4.60024,2469.97,2022-1-11T07:14:29Z
2022-01-11T05:16:01Z,42.805,6.029,13.2993,4.60023,2469.97,2022-1-11T07:17:32Z
2022-01-11T05:19:04Z,42.805,6.029,13.2994,4.60025,2469.947,2022-1-11T07:20:35Z
2022-01-11T05:22:08Z,42.805,6.029,13.2991,4.60021,2469.97,2022-1-11T07:23:38Z
2022-01-11T05:25:11Z,42.805,6.029,13.2993,4.60023,2469.97,2022-1-11T07:26:41Z
2022-01-11T05:28:14Z,42.805,6.029,13.2993,4.60022,2469.984,2022-1-11T07:29:45Z
2022-01-11T05:31:17Z,42.805,6.029,13.2993,4.60020,2469.984,2022-1-11T07:32:48Z
2022-01-11T05:34:20Z,42.805,6.029,13.2991,4.60021,2469.97,2022-1-11T07:35:51Z
2022-01-11T05:37:23Z,42.805,6.029,13.2996,4.60021,2470.017,2022-1-11T07:38:54Z
2022-01-11T05:40:26Z,42.805,6.029,13.2994,4.60021,2469.993,2022-1-11T07:41:57Z
2022-01-11T05:43:29Z,42.805,6.029,13.2995,4.60021,2470.017,2022-1-11T07:45:00Z
2022-01-11T05:46:33Z,42.805,6.029,13.2993,4.60021,2469.947,2022-1-11T07:48:03Z
2022-01-11T05:49:36Z,42.805,6.029,13.2991,4.60021,2469.97,2022-1-11T07:51:06Z
2022-01-11T05:52:39Z,42.805,6.029,13.2991,4.60019,2469.97,2022-1-11T07:54:10Z
2022-01-11T05:55:42Z,42.805,6.029,13.2993,4.60025,2469.984,2022-1-11T07:57:13Z
2022-01-11T05:58:45Z,42.805,6.029,13.2990,4.60021,2469.947,2022-1-11T08:00:16Z
2022-01-11T06:01:48Z,42.805,6.029,13.2995,4.60023,2469.97,2022-1-11T08:03:19Z
2022-01-11T06:04:51Z,42.805,6.029,13.2995,4.60021,2470.007,2022-1-11T08:06:22Z
2022-01-11T06:07:54Z,42.805,6.029,13.2991,4.60021,2469.993,2022-1-11T08:09:25Z
2022-01-11T06:10:58Z,42.805,6.029,13.2993,4.60021,2469.97,2022-1-11T08:12:28Z
2022-01-11T06:14:01Z,42.805,6.029,13.2995,4.60019,2469.984,2022-1-11T08:15:31Z
2022-01-11T06:17:04Z,42.805,6.029,13.2993,4.60021,2469.984,2022-1-11T08:18:34Z
2022-01-11T06:20:07Z,42.805,6.029,13.2995,4.60020,2469.984,2022-1-11T08:21:38Z
2022-01-11T06:23:10Z,42.805,6.029,13.2993,4.60020,2470.007,2022-1-11T08:24:41Z
2022-01-11T06:26:13Z,42.805,6.029,13.2993,4.60023,2469.984,2022-1-11T08:27:44Z
2022-01-11T06:29:16Z,42.805,6.029,13.2993,4.60022,2469.97,2022-1-11T08:30:47Z
2022-01-11T06:32:19Z,42.805,6.029,13.2991,4.60020,2469.97,2022-1-11T08:33:50Z
2022-01-11T06:35:23Z,42.805,6.029,13.2996,4.60021,2469.97,2022-1-11T08:36:53Z
2022-01-11T06:38:26Z,42.805,6.029,13.2995,4.60020,2469.984,2022-1-11T08:39:56Z
2022-01-11T06:41:29Z,42.805,6.029,13.2993,4.60019,2470.007,2022-1-11T08:43:00Z
2022-01-11T06:44:32Z,42.805,6.029,13.2991,4.60020,2470.007,2022-1-11T08:46:03Z
2022-01-11T06:47:35Z,42.805,6.029,13.2990,4.60019,2469.984,2022-1-11T08:49:06Z
2022-01-11T06:50:38Z,42.805,6.029,13.2990,4.60021,2469.993,2022-1-11T08:52:09Z
2022-01-11T06:53:41Z,42.805,6.029,13.2996,4.60021,2469.993,2022-1-11T08:55:12Z
2022-01-11T06:56:44Z,42.805,6.029,13.2993,4.60021,2469.993,2022-1-11T08:58:15Z
2022-01-11T06:59:48Z,42.805,6.029,13.2993,4.60020,2469.993,2022-1-11T09:01:18Z
2022-01-11T07:02:51Z,42.805,6.029,13.2993,4.60019,2470.007,2022-1-11T09:04:21Z
2022-01-11T07:05:54Z,42.805,6.029,13.2991,4.60019,2469.993,2022-1-11T09:07:24Z
2022-01-11T07:08:57Z,42.805,6.029,13.2989,4.60020,2469.984,2022-1-11T09:10:28Z
2022-01-11T07:12:00Z,42.805,6.029,13.2992,4.60019,2469.993,2022-1-11T09:13:31Z
2022-01-11T07:15:03Z,42.805,6.029,13.2991,4.60019,2470.007,2022-1-11T09:16:34Z
2022-01-11T07:18:06Z,42.805,6.029,13.2991,4.60020,2470.053,2022-1-11T09:19:37Z
2022-01-11T07:21:09Z,42.805,6.029,13.2989,4.60019,2469.993,2022-1-11T09:22:40Z
2022-01-11T07:24:13Z,42.805,6.029,13.2994,4.60020,2469.993,2022-1-11T09:25:43Z
2022-01-11T07:27:16Z,42.805,6.029,13.2991,4.60020,2469.993,2022-1-11T09:28:46Z
2022-01-11T07:30:19Z,42.805,6.029,13.2991,4.60020,2469.97,2022-1-11T09:31:49Z
2022-01-11T07:33:22Z,42.805,6.029,13.2991,4.60021,2470.007,2022-1-11T09:34:53Z
2022-01-11T07:36:25Z,42.805,6.029,13.2995,4.60020,2469.984,2022-1-11T09:37:56Z
2022-01-11T07:39:28Z,42.805,6.029,13.2996,4.60020,2469.993,2022-1-11T09:40:59Z
2022-01-11T07:42:31Z,42.805,6.029,13.2991,4.60020,2470.017,2022-1-11T09:44:02Z
2022-01-11T07:45:34Z,42.805,6.029,13.2993,4.60020,2469.97,2022-1-11T09:47:05Z
2022-01-11T07:48:38Z,42.805,6.029,13.2993,4.60020,2469.993,2022-1-11T09:50:08Z
2022-01-11T07:51:41Z,42.805,6.029,13.2994,4.60023,2469.97,2022-1-11T09:53:11Z
2022-01-11T07:54:44Z,42.805,6.029,13.2993,4.60021,2469.993,2022-1-11T09:56:14Z
2022-01-11T07:57:47Z,42.805,6.029,13.2991,4.60021,2470.017,2022-1-11T09:59:18Z
2022-01-11T08:00:50Z,42.805,6.029,13.2990,4.60021,2470.017,2022-1-11T10:02:21Z
2022-01-11T08:03:53Z,42.805,6.029,13.2995,4.60021,2470.007,2022-1-11T10:05:24Z
2022-01-11T08:06:56Z,42.805,6.029,13.2993,4.60020,2470.017,2022-1-11T10:08:27Z
2022-01-11T08:09:59Z,42.805,6.029,13.2997,4.60020,2470.053,2022-1-11T10:11:30Z
2022-01-11T08:13:03Z,42.805,6.029,13.2992,4.60019,2470.053,2022-1-11T10:14:33Z
2022-01-11T08:16:06Z,42.805,6.029,13.2992,4.60019,2470.017,2022-1-11T10:17:36Z
2022-01-11T08:19:09Z,42.805,6.029,13.2991,4.60020,2469.97,2022-1-11T10:20:39Z
2022-01-11T08:22:12Z,42.805,6.029,13.2992,4.60020,2470.04,2022-1-11T10:23:43Z
2022-01-11T08:25:15Z,42.805,6.029,13.2992,4.60021,2470.04,2022-1-11T10:26:46Z
2022-01-11T08:28:18Z,42.805,6.029,13.2993,4.60020,2470.017,2022-1-11T10:29:49Z
2022-01-11T08:31:21Z,42.805,6.029,13.2992,4.60019,2470.03,2022-1-11T10:32:52Z
2022-01-11T08:34:24Z,42.805,6.029,13.2994,4.60019,2470.007,2022-1-11T10:35:55Z
2022-01-11T08:37:28Z,42.805,6.029,13.2993,4.60020,2470.017,2022-1-11T10:38:58Z
2022-01-11T08:40:31Z,42.805,6.029,13.2991,4.60017,2469.993,2022-1-11T10:42:01Z
2022-01-11T08:43:34Z,42.805,6.029,13.2992,4.60019,2470.03,2022-1-11T10:45:04Z
2022-01-11T08:46:37Z,42.805,6.029,13.2994,4.60019,2470.017,2022-1-11T10:48:08Z
2022-01-11T08:49:40Z,42.805,6.029,13.2993,4.60019,2470.017,2022-1-11T10:51:11Z
2022-01-11T08:52:43Z,42.805,6.029,13.2991,4.60019,2470.053,2022-1-11T10:54:14Z
2022-01-11T08:55:46Z,42.805,6.029,13.2993,4.60019,2470.017,2022-1-11T10:57:17Z
2022-01-11T08:58:49Z,42.805,6.029,13.2994,4.60019,2470.017,2022-1-11T11:00:20Z
2022-01-11T09:01:53Z,42.805,6.029,13.2991,4.60019,2470.017,2022-1-11T11:03:23Z
2022-01-11T09:04:56Z,42.805,6.029,13.2996,4.60020,2470.017,2022-1-11T11:06:26Z
2022-01-11T09:07:59Z,42.805,6.029,13.2990,4.60019,2470.03,2022-1-11T11:09:29Z
2022-01-11T09:11:02Z,42.805,6.029,13.2998,4.60019,2470.03,2022-1-11T11:12:33Z
2022-01-11T09:14:05Z,42.805,6.029,13.2993,4.60020,2470.053,2022-1-11T11:15:36Z
2022-01-11T09:17:08Z,42.805,6.029,13.2990,4.60019,2470.053,2022-1-11T11:18:39Z
2022-01-11T09:20:11Z,42.805,6.029,13.2997,4.60019,2470.053,2022-1-11T11:21:42Z
2022-01-11T09:23:14Z,42.805,6.029,13.2993,4.60020,2470.017,2022-1-11T11:24:45Z
2022-01-11T09:26:18Z,42.805,6.029,13.2992,4.60019,2470.063,2022-1-11T11:27:48Z
2022-01-11T09:29:21Z,42.805,6.029,13.2991,4.60018,2470.053,2022-1-11T11:30:51Z
2022-01-11T09:32:24Z,42.805,6.029,13.2996,4.60020,2470.04,2022-1-11T11:33:55Z
2022-01-11T09:35:27Z,42.805,6.029,13.2993,4.60020,2470.077,2022-1-11T11:36:58Z
2022-01-11T09:38:30Z,42.805,6.029,13.2986,4.60019,2470.063,2022-1-11T11:40:01Z
2022-01-11T09:41:33Z,42.805,6.029,13.2994,4.60019,2470.053,2022-1-11T11:43:04Z
2022-01-11T09:44:36Z,42.805,6.029,13.2993,4.60020,2470.087,2022-1-11T11:46:07Z
2022-01-11T09:47:39Z,42.805,6.029,13.2993,4.60019,2470.063,2022-1-11T11:49:10Z
2022-01-11T09:50:43Z,42.805,6.029,13.2992,4.60019,2470.087,2022-1-11T11:52:13Z
2022-01-11T09:53:46Z,42.805,6.029,13.2991,4.60019,2470.087,2022-1-11T11:55:16Z
2022-01-11T09:56:49Z,42.805,6.029,13.2996,4.60018,2470.077,2022-1-11T11:58:20Z
2022-01-11T09:59:52Z,42.805,6.029,13.2999,4.60019,2470.04,2022-1-11T12:01:23Z
2022-01-11T10:02:55Z,42.805,6.029,13.2991,4.60019,2470.04,2022-1-11T12:04:26Z
2022-01-11T10:05:58Z,42.805,6.029,13.2991,4.60017,2470.087,2022-1-11T12:07:29Z
2022-01-11T10:09:01Z,42.805,6.029,13.2992,4.60019,2470.11,2022-1-11T12:10:32Z
2022-01-11T10:12:04Z,42.805,6.029,13.2991,4.60019,2470.087,2022-1-11T12:13:35Z
2022-01-11T10:15:08Z,42.805,6.029,13.2994,4.60018,2470.11,2022-1-11T12:16:38Z
2022-01-11T10:18:11Z,42.805,6.029,13.2995,4.60018,2470.1,2022-1-11T12:19:41Z
2022-01-11T10:21:14Z,42.805,6.029,13.2993,4.60018,2470.11,2022-1-11T12:22:45Z
2022-01-11T10:24:17Z,42.805,6.029,13.2997,4.60019,2470.087,2022-1-11T12:25:48Z
2022-01-11T10:27:20Z,42.805,6.029,13.2990,4.60016,2470.087,2022-1-11T12:28:51Z
2022-01-11T10:30:23Z,42.805,6.029,13.2991,4.60017,2470.063,2022-1-11T12:31:54Z
2022-01-11T10:33:26Z,42.805,6.029,13.2988,4.60019,2470.124,2022-1-11T12:34:57Z
2022-01-11T10:36:29Z,42.805,6.029,13.2991,4.60017,2470.124,2022-1-11T12:38:00Z
2022-01-11T10:39:33Z,42.805,6.029,13.2995,4.60017,2470.11,2022-1-11T12:41:03Z
2022-01-11T10:42:36Z,42.805,6.029,13.2992,4.60017,2470.087,2022-1-11T12:44:06Z
2022-01-11T10:45:39Z,42.805,6.029,13.2993,4.60018,2470.11,2022-1-11T12:47:10Z
2022-01-11T10:48:42Z,42.805,6.029,13.2991,4.60017,2470.133,2022-1-11T12:50:13Z
2022-01-11T10:51:45Z,42.805,6.029,13.2993,4.60018,2470.11,2022-1-11T12:53:16Z
2022-01-11T10:54:48Z,42.805,6.029,13.2991,4.60019,2470.124,2022-1-11T12:56:19Z
2022-01-11T10:57:51Z,42.805,6.029,13.2990,4.60019,2470.11,2022-1-11T12:59:22Z
2022-01-11T11:00:55Z,42.805,6.029,13.2995,4.60020,2470.11,2022-1-11T13:02:25Z
2022-01-11T11:03:58Z,42.805,6.029,13.2991,4.60020,2470.11,2022-1-11T13:05:28Z
2022-01-11T11:07:01Z,42.805,6.029,13.2990,4.60019,2470.11,2022-1-11T13:08:31Z
2022-01-11T11:10:04Z,42.805,6.029,13.2992,4.60019,2470.11,2022-1-11T13:11:35Z
2022-01-11T11:13:07Z,42.805,6.029,13.2993,4.60019,2470.11,2022-1-11T13:14:38Z
2022-01-11T11:16:10Z,42.805,6.029,13.2993,4.60019,2470.124,2022-1-11T13:17:41Z
2022-01-11T11:19:13Z,42.805,6.029,13.2996,4.60019,2470.124,2022-1-11T13:20:44Z
2022-01-11T11:22:16Z,42.805,6.029,13.2992,4.60020,2470.133,2022-1-11T13:23:47Z
2022-01-11T11:25:20Z,42.805,6.029,13.2991,4.60020,2470.147,2022-1-11T13:26:50Z
2022-01-11T11:28:23Z,42.805,6.029,13.2993,4.60020,2470.133,2022-1-11T13:29:53Z
2022-01-11T11:31:26Z,42.805,6.029,13.2993,4.60019,2470.147,2022-1-11T13:32:57Z
2022-01-11T11:34:29Z,42.805,6.029,13.2996,4.60020,2470.147,2022-1-11T13:36:00Z
2022-01-11T11:37:32Z,42.805,6.029,13.2993,4.60017,2470.147,2022-1-11T13:39:03Z
2022-01-11T11:40:35Z,42.805,6.029,13.2996,4.60021,2470.133,2022-1-11T13:42:06Z
2022-01-11T11:43:38Z,42.805,6.029,13.2990,4.60019,2470.11,2022-1-11T13:45:09Z
2022-01-11T11:46:41Z,42.805,6.029,13.2992,4.60020,2470.133,2022-1-11T13:48:12Z
2022-01-11T11:49:45Z,42.805,6.029,13.2994,4.60020,2470.147,2022-1-11T13:51:15Z
2022-01-11T11:52:48Z,42.805,6.029,13.2993,4.60018,2470.147,2022-1-11T13:54:18Z
2022-01-11T11:55:51Z,42.805,6.029,13.2993,4.60019,2470.171,2022-1-11T13:57:22Z
2022-01-11T11:58:54Z,42.805,6.029,13.2995,4.60019,2470.133,2022-1-11T14:00:25Z
2022-01-11T12:01:57Z,42.805,6.029,13.2997,4.60020,2470.156,2022-1-11T14:03:28Z
2022-01-11T12:05:00Z,42.805,6.029,13.2995,4.60019,2470.156,2022-1-11T14:06:31Z
2022-01-11T12:08:03Z,42.805,6.029,13.2998,4.60020,2470.133,2022-1-11T14:09:34Z
2022-01-11T12:11:07Z,42.805,6.029,13.2993,4.60019,2470.156,2022-1-11T14:12:37Z
2022-01-11T12:14:10Z,42.805,6.029,13.2993,4.60021,2470.156,2022-1-11T14:15:40Z
2022-01-11T12:17:13Z,42.805,6.029,13.2993,4.60019,2470.156,2022-1-11T14:18:43Z
2022-01-11T12:20:16Z,42.805,6.029,13.2993,4.60021,2470.156,2022-1-11T14:21:47Z
2022-01-11T12:23:19Z,42.805,6.029,13.2992,4.60021,2470.156,2022-1-11T14:24:50Z
2022-01-11T12:26:22Z,42.805,6.029,13.2991,4.60019,2470.171,2022-1-11T14:27:53Z
2022-01-11T12:29:25Z,42.805,6.029,13.2992,4.60020,2470.171,2022-1-11T14:30:56Z
2022-01-11T12:32:28Z,42.805,6.029,13.2992,4.60020,2470.156,2022-1-11T14:33:59Z
2022-01-11T12:35:32Z,42.805,6.029,13.2995,4.60021,2470.18,2022-1-11T14:37:02Z
2022-01-11T12:38:35Z,42.805,6.029,13.2997,4.60021,2470.194,2022-1-11T14:40:05Z
2022-01-11T12:41:38Z,42.805,6.029,13.2996,4.60020,2470.203,2022-1-11T14:43:09Z
2022-01-11T12:44:41Z,42.805,6.029,13.2991,4.60021,2470.18,2022-1-11T14:46:12Z
2022-01-11T12:47:44Z,42.805,6.029,13.2995,4.60019,2470.194,2022-1-11T14:49:15Z
2022-01-11T12:50:47Z,42.805,6.029,13.2996,4.60019,2470.171,2022-1-11T14:52:18Z
2022-01-11T12:53:50Z,42.805,6.029,13.2996,4.60019,2470.203,2022-1-11T14:55:21Z
2022-01-11T12:56:53Z,42.805,6.029,13.2993,4.60021,2470.24,2022-1-11T14:58:24Z
2022-01-11T12:59:57Z,42.805,6.029,13.2995,4.60020,2470.203,2022-1-11T15:01:27Z
2022-01-11T13:03:00Z,42.805,6.029,13.2994,4.60019,2470.203,2022-1-11T15:04:30Z
2022-01-11T13:06:03Z,42.805,6.029,13.2996,4.60021,2470.156,2022-1-11T15:07:34Z
2022-01-11T13:09:06Z,42.805,6.029,13.2991,4.60019,2470.24,2022-1-11T15:10:37Z
2022-01-11T13:12:09Z,42.805,6.029,13.2994,4.60020,2470.203,2022-1-11T15:13:40Z
2022-01-11T13:15:12Z,42.805,6.029,13.2993,4.60019,2470.203,2022-1-11T15:16:43Z
2022-01-11T13:18:15Z,42.805,6.029,13.2993,4.60020,2470.24,2022-1-11T15:19:46Z
2022-01-11T13:21:19Z,42.805,6.029,13.2996,4.60021,2470.18,2022-1-11T15:22:49Z
2022-01-11T13:24:22Z,42.805,6.029,13.2991,4.60019,2470.217,2022-1-11T15:25:52Z
2022-01-11T13:27:25Z,42.805,6.029,13.2995,4.60019,2470.227,2022-1-11T15:28:55Z
2022-01-11T13:30:28Z,42.805,6.029,13.2996,4.60021,2470.217,2022-1-11T15:31:59Z
2022-01-11T13:33:31Z,42.805,6.029,13.2992,4.60019,2470.227,2022-1-11T15:35:02Z
2022-01-11T13:36:34Z,42.805,6.029,13.2992,4.60019,2470.194,2022-1-11T15:38:05Z
2022-01-11T13:39:37Z,42.805,6.029,13.2996,4.60019,2470.227,2022-1-11T15:41:08Z
2022-01-11T13:42:40Z,42.805,6.029,13.2996,4.60021,2470.227,2022-1-11T15:44:11Z
2022-01-11T13:45:44Z,42.805,6.029,13.2992,4.60019,2470.24,2022-1-11T15:47:14Z
2022-01-11T13:48:47Z,42.805,6.029,13.2992,4.60020,2470.18,2022-1-11T15:50:17Z
2022-01-11T13:51:50Z,42.805,6.029,13.2993,4.60019,2470.227,2022-1-11T15:53:20Z
2022-01-11T13:54:53Z,42.805,6.029,13.2992,4.60019,2470.24,2022-1-11T15:56:24Z
2022-01-11T13:57:56Z,42.805,6.029,13.2994,4.60019,2470.25,2022-1-11T15:59:27Z
2022-01-11T14:00:59Z,42.805,6.029,13.2996,4.60019,2470.25,2022-1-11T16:02:30Z
2022-01-11T14:04:02Z,42.805,6.029,13.2992,4.60021,2470.264,2022-1-11T16:05:33Z
2022-01-11T14:07:05Z,42.805,6.029,13.2993,4.60019,2470.25,2022-1-11T16:08:36Z
2022-01-11T14:10:09Z,42.805,6.029,13.2993,4.60019,2470.24,2022-1-11T16:11:39Z
2022-01-11T14:13:12Z,42.805,6.029,13.2994,4.60017,2470.227,2022-1-11T16:14:42Z
2022-01-11T14:16:15Z,42.805,6.029,13.2994,4.60017,2470.264,2022-1-11T16:17:45Z
2022-01-11T14:19:18Z,42.805,6.029,13.2993,4.60019,2470.25,2022-1-11T16:20:49Z
2022-01-11T14:22:21Z,42.805,6.029,13.2991,4.60019,2470.25,2022-1-11T16:23:52Z
2022-01-11T14:25:24Z,42.805,6.029,13.2994,4.60017,2470.227,2022-1-11T16:26:55Z
2022-01-11T14:28:27Z,42.805,6.029,13.2993,4.60021,2470.264,2022-1-11T16:29:58Z
2022-01-11T14:31:30Z,42.805,6.029,13.2996,4.60019,2470.287,2022-1-11T16:33:01Z
2022-01-11T14:34:34Z,42.805,6.029,13.2995,4.60019,2470.273,2022-1-11T16:36:04Z
2022-01-11T14:37:37Z,42.805,6.029,13.2992,4.60019,2470.287,2022-1-11T16:39:07Z
2022-01-11T14:40:40Z,42.805,6.029,13.2991,4.60019,2470.25,2022-1-11T16:42:10Z
2022-01-11T14:43:43Z,42.805,6.029,13.2993,4.60020,2470.25,2022-1-11T16:45:14Z
2022-01-11T14:46:46Z,42.805,6.029,13.2993,4.60019,2470.227,2022-1-11T16:48:17Z
2022-01-11T14:49:49Z,42.805,6.029,13.2994,4.60018,2470.25,2022-1-11T16:51:20Z
2022-01-11T14:52:52Z,42.805,6.029,13.2993,4.60020,2470.273,2022-1-11T16:54:23Z
2022-01-11T14:55:55Z,42.805,6.029,13.2991,4.60019,2470.297,2022-1-11T16:57:26Z
2022-01-11T14:58:59Z,42.805,6.029,13.2992,4.60019,2470.25,2022-1-11T17:00:29Z
2022-01-11T15:02:02Z,42.805,6.029,13.2993,4.60019,2470.287,2022-1-11T17:03:32Z
2022-01-11T15:05:05Z,42.805,6.029,13.2991,4.60017,2470.287,2022-1-11T17:06:36Z
2022-01-11T15:08:08Z,42.805,6.029,13.2991,4.60018,2470.25,2022-1-11T17:09:39Z
2022-01-11T15:11:11Z,42.805,6.029,13.2996,4.60019,2470.25,2022-1-11T17:12:42Z
2022-01-11T15:14:14Z,42.805,6.029,13.2991,4.60018,2470.264,2022-1-11T17:15:45Z